Location: Oakley
(37.9974°N, 121.7125°W)
Time: 02:12:00
(UTC+00:00)

Cosmos 2227 Rocket - Pass Details

Date: 13 February 2026
Orbit: 836 x 845 km, 71.0° (Epoch: 13 March)

Event Time Altitude Azimuth Distance (km) Brightness Sun altitude
Exits shadow 14:16:01 - 316° (NW) 2,951 4.5 -9.1°
Reaches altitude 10° 14:17:38 10° 307° (NW) 2,469 4.1 -8.8°
Maximum altitude 14:21:45 21° 260° (W) 1,805 3.4 -8.0°
Drops below altitude 10° 14:25:52 10° 212° (SSW) 2,458 4.4 -7.2°
Sets 14:28:52 0° 197° (SSW) 3,388 5.3 -6.6°
